Weather History for Monroe, LA

Change the Weather History Date:

Monday, March 17, 2014

  Actual Average Record
Temperature  
Mean Temperature 42 °F 58 °F  
Max Temperature 48 °F 70 °F 91 °F (1963)
Min Temperature 35 °F 47 °F 29 °F (1978)
Degree Days  
Heating Degree Days 23 8  
Month to date heating degree days 262 164  
Since 1 July heating degree days 2588 2058  
Cooling Degree Days 0 1  
Month to date cooling degree days 1 15  
Year to date cooling degree days 3 26  
Moisture  
Dew Point 34 °F    
Average Humidity 79    
Maximum Humidity 92    
Minimum Humidity 65    
Precipitation  
Precipitation 0.01 in 0.15 in 2.34 in (1961)
Month to date precipitation 2.06 2.73  
Year to date precipitation 6.49 12.37  
Snow  
Snow 0.00 in - - ()
Month to date snowfall 0.0  
Since 1 July snowfall 0.5  
Snow Depth 0.00 in    
Sea Level Pressure  
Sea Level Pressure 29.91 in    
Wind  
Wind Speed 7 mph (North)    
Max Wind Speed 18 mph    
Max Gust Speed 24 mph    
Visibility 10 miles    
Events Rain    
T = Trace of Precipitation, MM = Missing Value Source: NWS Daily Summary

Daily Weather History Graph

Daily Weather History Graph

Search for Another Location

Airport:

Trip Planner

Search our weather history database for the weather conditions in past years. The results will help you decide how hot, cold, wet, or windy it might be!

Date:

Astronomy

Mar. 17, 2014 Rise Set
Actual Time 7:15 AM CDT 7:17 PM CDT
Civil Twilight 6:51 AM CDT 7:42 PM CDT
Nautical Twilight 6:22 AM CDT 8:10 PM CDT
Astronomical Twilight 5:54 AM CDT 8:39 PM CDT
Moon 8:28 PM CDT (3/17) 7:35 AM CDT (3/17)
Length of Visible Light 12h 50m
Length of Day
12h 01m
Full, 99% of the Moon is Illuminated
Mar 17
Full
Mar 23
Last Quarter
Mar 30
New
Apr 7
First Quarter
Apr 15
Full

Hourly Weather History & Observations

Time (CDT) Temp. Windchill Dew Point Humidity Pressure Visibility Wind Dir Wind Speed Gust Speed Precip Events Conditions
12:53 AM 41.0 °F 34.3 °F 35.1 °F 79% 29.92 in 10.0 mi NNW 11.5 mph - N/A   Overcast
1:48 AM 39.2 °F 31.2 °F 35.6 °F 87% 29.92 in 10.0 mi NNW 13.8 mph 19.6 mph N/A   Overcast
1:53 AM 39.0 °F 31.4 °F 35.1 °F 86% 29.92 in 10.0 mi NNW 12.7 mph 19.6 mph N/A   Overcast
2:09 AM 39.2 °F 31.6 °F 33.8 °F 81% 29.92 in 10.0 mi NNW 12.7 mph - N/A   Overcast
2:22 AM 39.2 °F 30.8 °F 35.6 °F 87% 29.91 in 7.0 mi North 15.0 mph - 0.00 in Rain Light Rain
2:42 AM 39.2 °F 32.0 °F 33.8 °F 81% 29.91 in 10.0 mi North 11.5 mph 20.7 mph 0.00 in   Overcast
2:53 AM 37.9 °F 28.9 °F 34.0 °F 86% 29.92 in 9.0 mi North 16.1 mph 23.0 mph 0.00 in   Overcast
3:53 AM 37.0 °F 28.9 °F 34.0 °F 89% 29.91 in 10.0 mi NNW 12.7 mph - 0.00 in Rain Light Rain
4:30 AM 37.4 °F 29.3 °F 33.8 °F 87% 29.91 in 10.0 mi NNW 12.7 mph - 0.00 in   Overcast
4:53 AM 37.0 °F 28.9 °F 33.1 °F 86% 29.91 in 10.0 mi NNW 12.7 mph - 0.00 in   Overcast
5:53 AM 37.0 °F 31.6 °F 33.1 °F 86% 29.92 in 8.0 mi North 6.9 mph - 0.00 in Rain Light Rain
6:32 AM 37.4 °F 32.1 °F 33.8 °F 87% 29.92 in 10.0 mi NNE 6.9 mph - 0.01 in   Overcast
6:53 AM 37.0 °F 31.0 °F 32.0 °F 82% 29.91 in 10.0 mi NNE 8.1 mph - 0.01 in   Overcast
7:06 AM 37.4 °F 30.8 °F 32.0 °F 81% 29.92 in 10.0 mi North 9.2 mph - N/A   Overcast
7:53 AM 37.0 °F 31.0 °F 32.0 °F 82% 29.92 in 10.0 mi NNE 8.1 mph - N/A   Overcast
8:28 AM 37.4 °F 30.3 °F 30.2 °F 75% 29.93 in 10.0 mi North 10.4 mph - N/A   Overcast
8:53 AM 37.9 °F 29.6 °F 30.9 °F 76% 29.93 in 10.0 mi North 13.8 mph - N/A   Overcast
9:03 AM 37.4 °F 30.3 °F 30.2 °F 75% 29.93 in 10.0 mi NNE 10.4 mph - N/A   Overcast
9:13 AM 37.4 °F 30.8 °F 32.0 °F 81% 29.93 in 10.0 mi North 9.2 mph - N/A   Overcast
9:24 AM 37.4 °F 28.9 °F 32.0 °F 81% 29.93 in 10.0 mi NNW 13.8 mph - N/A   Overcast
9:32 AM 37.4 °F 29.3 °F 32.0 °F 81% 29.93 in 10.0 mi NNW 12.7 mph - N/A   Overcast
9:43 AM 37.4 °F 30.3 °F 32.0 °F 81% 29.93 in 10.0 mi NNW 10.4 mph - N/A   Overcast
9:53 AM 37.0 °F 28.9 °F 32.0 °F 82% 29.93 in 10.0 mi North 12.7 mph - N/A   Overcast
10:53 AM 37.0 °F 29.8 °F 32.0 °F 82% 29.95 in 10.0 mi North 10.4 mph - N/A   Overcast
11:41 AM 37.4 °F 31.4 °F 32.0 °F 81% 29.94 in 10.0 mi North 8.1 mph - N/A   Overcast
11:53 AM 39.0 °F 31.8 °F 30.9 °F 73% 29.94 in 10.0 mi NNW 11.5 mph - N/A   Overcast
12:53 PM 39.9 °F 33.4 °F 32.0 °F 73% 29.93 in 10.0 mi North 10.4 mph - N/A   Overcast
1:53 PM 41.0 °F 35.2 °F 33.1 °F 73% 29.89 in 10.0 mi North 9.2 mph - N/A   Overcast
2:46 PM 44.6 °F 41.4 °F 33.8 °F 66% 29.86 in 10.0 mi NNW 5.8 mph - N/A   Overcast
2:53 PM 45.0 °F 41.2 °F 35.1 °F 68% 29.86 in 10.0 mi Variable 6.9 mph - N/A   Overcast
3:53 PM 45.0 °F 40.6 °F 34.0 °F 65% 29.86 in 10.0 mi NW 8.1 mph - N/A   Overcast
4:53 PM 46.0 °F 41.4 °F 35.1 °F 66% 29.86 in 10.0 mi North 9.2 mph - N/A   Overcast
5:53 PM 46.9 °F - 35.1 °F 63% 29.85 in 10.0 mi Calm Calm - N/A   Mostly Cloudy
6:36 PM 46.4 °F 44.3 °F 35.6 °F 66% 29.86 in 10.0 mi NNE 4.6 mph - N/A   Partly Cloudy
6:53 PM 46.0 °F - 36.0 °F 68% 29.86 in 10.0 mi Calm Calm - N/A   Scattered Clouds
7:53 PM 43.0 °F 40.3 °F 36.0 °F 76% 29.89 in 10.0 mi East 4.6 mph - N/A   Mostly Cloudy
8:53 PM 41.0 °F 39.0 °F 36.0 °F 82% 29.88 in 10.0 mi ESE 3.5 mph - N/A   Clear
9:53 PM 39.9 °F - 35.1 °F 83% 29.89 in 10.0 mi Calm Calm - N/A   Clear
10:53 PM 39.0 °F - 35.1 °F 86% 29.89 in 10.0 mi Calm Calm - N/A   Clear
11:53 PM 37.9 °F - 35.1 °F 89% 29.91 in 10.0 mi Calm Calm - N/A   Clear